DW5560 Weather Reports


Display with metric or nautical units.
time (UTC)temp
F
wind
direction
speed
MPH
gust
MPH
rain 1hr
in
rain 24hr
in
rain mn
in
humidity
%
barometer
mb
20260504081023 57 341 14.0 29.0 0.00 0.63 0.09 57 1018.7
20260504045025 53 5 12.0 20.0 0.00 1.50 0.08 65 1017.2
20260504044018 53 333 11.0 20.0 0.00 1.50 0.08 66 1017.3
20260504043030 53 334 9.0 21.0 0.00 1.50 0.08 67 1017.2
20260504042027 53 355 13.0 19.0 0.00 1.50 0.08 68 1017.1
20260504041020 53 328 12.0 17.0 0.00 1.50 0.08 68 1017.0
20260504040033 53 348 13.0 17.0 0.00 1.50 0.08 68 1016.9
20260504035030 53 347 9.0 17.0 0.00 1.57 0.08 68 1016.8
20260504034021 53 348 8.0 18.0 0.00 1.57 0.08 68 1016.8
20260504033034 53 329 10.0 17.0 0.00 1.57 0.08 67 1016.7
20260504032026 52 345 11.0 17.0 0.00 1.57 0.08 67 1016.6
20260504031042 52 338 10.0 19.0 0.00 1.57 0.08 67 1016.6
20260504030031 52 296 12.0 19.0 0.00 1.57 0.08 67 1016.5
20260504025025 53 327 14.0 21.0 0.00 1.73 0.08 66 1016.3
20260504024018 53 301 12.0 22.0 0.00 1.73 0.08 66 1016.3
20260504023034 53 348 13.0 20.0 0.00 1.73 0.08 65 1016.4
20260504022027 53 294 15.0 22.0 0.00 1.73 0.08 64 1016.3
20260504021018 53 9 13.0 21.0 0.00 1.73 0.08 64 1016.2
20260504020032 53 20 13.0 23.0 0.00 1.73 0.08 64 1016.3
20260504015029 53 339 15.0 24.0 0.00 1.77 0.08 64 1016.3
20260504014022 53 327 15.0 24.0 0.00 1.77 0.08 65 1016.4
20260504013055 53 9 15.0 23.0 0.00 1.77 0.08 64 1016.3
20260504012043 53 20 16.0 24.0 0.00 1.77 0.08 65 1016.3
20260504011033 53 333 15.0 26.0 0.00 1.77 0.08 65 1016.3
20260504010029 53 342 13.0 22.0 0.00 1.77 0.08 65 1016.4
20260504005019 53 343 14.0 27.0 0.00 1.81 0.08 65 1016.2
20260504004030 53 313 16.0 30.0 0.00 1.81 0.08 65 1016.0
20260504003027 53 350 15.0 23.0 0.00 1.81 0.08 65 1016.3
20260504002040 53 5 16.0 26.0 0.00 1.81 0.08 65 1016.1
20260504001031 53 311 15.0 25.0 0.00 1.81 0.08 65 1016.0
20260504000025 53 314 15.0 27.0 0.00 1.81 0.08 64 1016.0
20260503235057 53 360 18.0 26.0 0.00 1.81 0.08 63 1016.0
20260503234052 53 309 15.0 26.0 0.00 1.81 0.08 65 1016.1
20260503233024 53 355 16.0 26.0 0.00 1.81 0.08 65 1016.1
20260503232017 52 346 16.0 27.0 0.00 1.81 0.08 65 1016.1
20260503231029 53 331 18.0 28.0 0.00 1.81 0.08 65 1016.1
20260503230044 52 360 16.0 32.0 0.00 1.81 0.08 65 1016.2
20260503225035 52 318 16.0 25.0 0.08 1.85 0.08 66 1016.2
20260503224028 52 327 17.0 26.0 0.08 1.85 0.08 67 1016.2
20260503223021 52 351 18.0 27.0 0.12 1.85 0.08 68 1016.2
20260503222038 52 308 15.0 23.0 0.28 1.85 0.08 71 1016.3
20260503221027 51 338 14.0 23.0 0.39 1.85 0.08 74 1016.5
20260503220037 51 341 12.0 21.0 0.39 1.85 0.08 76 1016.6
20260503215028 51 319 15.0 24.0 0.31 1.81 0.06 74 1016.4
20260503214042 50 355 12.0 21.0 0.31 1.81 0.06 77 1016.6
20260503213017 50 348 12.0 20.0 0.28 1.77 0.06 76 1016.7
20260503212029 52 331 13.0 21.0 0.12 1.61 0.02 72 1016.6
20260503211021 53 326 12.0 20.0 0.00 1.50 0.00 68 1016.5
20260503210031 53 327 12.0 18.0 0.00 1.50 0.00 68 1016.6
20260503205027 53 360 12.0 20.0 0.00 1.57 0.30 67 1016.4
20260503204037 53 315 9.0 21.0 0.00 1.57 0.30 65 1016.1
20260503203028 53 339 7.0 17.0 0.00 1.57 0.30 65 1016.2
20260503202021 52 323 8.0 19.0 0.00 1.57 0.30 65 1016.3
20260503201036 52 329 11.0 20.0 0.00 1.57 0.30 65 1016.2
20260503200048 52 289 14.0 22.0 0.00 1.57 0.30 63 1015.9
20260503195019 52 31 15.0 25.0 0.00 1.57 0.30 61 1015.8
20260503194053 52 341 18.0 29.0 0.00 1.57 0.30 61 1015.6
20260503193028 52 342 10.0 19.0 0.00 1.57 0.30 63 1015.9
20260503192019 52 290 9.0 18.0 0.00 1.57 0.30 63 1016.0
20260503191031 52 304 8.0 19.0 0.00 1.57 0.30 61 1016.0
20260503190023 53 347 11.0 24.0 0.00 1.57 0.30 60 1015.9
20260503185020 52 342 15.0 21.0 0.00 1.57 0.30 60 1015.8
20260503184052 51 339 8.0 13.0 0.00 1.57 0.30 65 1015.8
20260503183024 51 13 6.0 14.0 0.00 1.57 0.30 69 1015.9
20260503182035 51 313 3.0 10.0 0.00 1.57 0.30 70 1015.9
20260503181031 51 321 5.0 11.0 0.00 1.57 0.30 69 1015.8
20260503180024 51 43 6.0 13.0 0.00 1.57 0.30 67 1015.8
20260503175056 51 335 4.0 15.0 0.00 1.57 0.30 66 1015.9
20260503174027 51 313 10.0 24.0 0.00 1.57 0.30 66 1015.8
20260503173022 52 332 14.0 24.0 0.00 1.57 0.30 65 1015.7
20260503172034 52 285 14.0 23.0 0.00 1.57 0.30 61 1015.2
20260503171025 52 337 12.0 22.0 0.00 1.57 0.30 62 1015.3
20260503131036 55 341 15.0 24.0 0.00 1.57 0.30 61 1014.4